Regional Weather Roundup
Issued by NWS Little Rock, AR

Home | Current Version | Previous Version | Graphics & Text | Print | Product List | Glossary On
Versions: 1 2 3 4 5 6 7 8 9 10 11 12 13 14 15 16 17 18 19 20 21 22 23 24 25 26 27 28 29 30 31 32 33 34 35 36 37 38 39 40 41 42 43 44 45 46 47 48 49 50
000
ASUS44 KLZK 290905
RWRLZK

WEATHER ROUNDUP FOR ARKANSAS
NATIONAL WEATHER SERVICE LITTLE ROCK AR
400 AM CDT MON MAY 29 2017

NOTE: "FAIR" INDICATES FEW OR NO CLOUDS BELOW 12,000 FEET WITH NO
SIGNIFICANT WEATHER AND/OR OBSTRUCTIONS TO VISIBILITY.

ARZ001-003-010-029-291000-
NORTHWEST ARKANSAS

CITY           SKY/WX    TMP DP  RH WIND       PRES   REMARKS
FAYETTEVILLE   CLEAR     54  54 100 S3        30.04S
FORT SMITH     CLOUDY    62  58  86 CALM      30.01S
HARRISON       CLOUDY    59  55  87 CALM      30.03R
BENTONVILLE    CLEAR     59  55  88 CALM      30.04S
ROGERS         CLEAR     60  56  86 SW5       30.04S
SILOAM SPGS    CLEAR     57  54  88 S3        30.03S
HIGHFILL       CLEAR     58  56  93 SW5       30.03F
$$

ARZ004-005-016-291000-
NORTH CENTRAL ARKANSAS

CITY           SKY/WX    TMP DP  RH WIND       PRES   REMARKS
BATESVILLE     PTCLDY    61  59  94 W3        29.99S
FLIPPIN        PTCLDY    61  54  77 SW3       29.98S
MTN HOME       CLOUDY    58  56  93 CALM      30.00R
$$

ARZ040-041-291000-
WEST CENTRAL ARKANSAS

CITY           SKY/WX    TMP DP  RH WIND       PRES   REMARKS
MENA           PTCLDY    59  59 100 CALM      30.01F
MOUNT IDA      PTCLDY    62  60  93 CALM      29.97F FOG
$$

ARZ009-017-025-026-028-291000-
NORTHEAST ARKANSAS

CITY           SKY/WX    TMP DP  RH WIND       PRES   REMARKS
JONESBORO      CLOUDY    65  61  87 NW3       29.95F
NEWPORT        CLOUDY    64  61  90 NW7       29.97R
WALNUT RIDGE   CLOUDY    63  57  82 S3        29.96S
BLYTHEVILLE    CLOUDY    66  64  93 W3        29.95F
$$

ARZ022-023-033-042-044-291000-
CENTRAL ARKANSAS

CITY           SKY/WX    TMP DP  RH WIND       PRES   REMARKS
LITTLE ROCK    CLOUDY    68  65  90 NW8       29.96F
N LITTLE ROCK    N/A     67  63  87 NW5       29.96F
JACKSONVILLE   MOCLDY    66  64  91 NW3       29.96F
CONWAY           N/A     66  64  94 W3        29.97F
SEARCY         CLOUDY    63  63 100 CALM      29.98F
HOT SPRINGS    MOCLDY    67  66  97 NW3       29.97F
RUSSELLVILLE   CLOUDY    61  60  97 NW3       29.99F
CLINTON        FAIR      57  57 100 CALM      30.00F
$$

ARZ036-291000-
EAST ARKANSAS

CITY           SKY/WX    TMP DP  RH WIND       PRES   REMARKS
WEST MEMPHIS   CLOUDY    69  69 100 CALM      29.94S FOG
$$

ARZ050-053-066-070-073-291000-
SOUTHWEST ARKANSAS

CITY           SKY/WX    TMP DP  RH WIND       PRES   REMARKS
ARKADELPHIA    PTSUNNY   71  68  90 CALM      29.96F
CAMDEN         CLOUDY    68  64  88 CALM      29.95F
TEXARKANA      MOCLDY    70  70 100 W5        29.95F
EL DORADO      CLOUDY    67  65  93 CALM      29.95F
DE QUEEN       MOCLDY    64  64 100 CALM      29.95F
$$

ARZ056-057-069-291000-
SOUTHEAST ARKANSAS

CITY           SKY/WX    TMP DP  RH WIND       PRES   REMARKS
PINE BLUFF     HVY RAIN  72  71  97 CALM      29.94F
STUTTGART      CLOUDY    72  57  60 N6        29.95F
MONTICELLO     CLOUDY    71  67  87 SW12      29.94F

$$





USA.gov is the U.S. government's official web portal to all federal, state and local government web resources and services.